EHI
0 0 0 0 0 0 0 0 0 0 0 0 0 0 0 0 0 0 0 0 0 0 0 0 0 0 0 0 0 0 0 0 0 0 0 0 0 0
0 0 0 0 0 0 0 0 0 0 0 0 0 0 0 0 0 0 0 0 0 0 0 0 0 0 0 0 0 0 0 0 0 0 0 0 0 0
0 0 0 0 0 0 0 0 0 0 0 0 0 0 0 0 0 0 0 0 0 0 0 0 0 0 0 0 0 0 0 0 0 0 0 0 0 0
0 0 0 0 0 0 0 0 0 0 0 0 0 0 0 0 0 0 0 0 0 0 0 0 0 0 0 0 0 0 0 0 0 0 0 0 0 0
0 0 0 0 0 0 0 0 0 0 0 0 0 0 0 0 0 0 0 0 0 0 0 0 0 0 0 0 0 0 0 0 0 0 0 0 0 0
0 0 0 0 0 0 0 0 0 0 0 0 0 0 0 0 0 0 0 0 0 0 0 0 0 0 0 0 0 0 0 0 0 0 0 0 0 0
0 0 0 0 0 0 0 0 0 0 0 0 0 0 0 0 0 0 0 0 0 0 0 0 0 0 0 0 0 0 0 0 0 0 0 0 0 0
0 0 0 0 0 0 0 0 0 0 0 0 0 0 0 0 0 0 0 0 0 0 0 0 0 0 0 0 0 0 0 0 0 0 0 0 0 0
0 0 0 0 0 0 0 0 0 0 0 0 0 0 0 0 0 0 0 0 0 0 0 0 0 0 0 0 0 0 0 0 0 0 0 0 0 0
0 0 0 0 0 0 0 0 0 0 0 0 0 0 0 0 0 0 0 0 0 0 0 0 0 0 0 0 0 0 0 0 0 0 0 0 0 0
0 0 0 0 0 0 0 0 0 0 0 0 0 0 0 0 0 0 0 0 0 0 0 0 0 0 0 0 0 0 0 0 0 0 0 0 0 0
0 0 0 0 0 0 0 0 0 0 0 0 0 0 0 0 0 0 0 0 0 0 0 0 0 0 0 0 0 0 0 0 0 0 0 0 0 0
0 0 0 0 0 0 0 0 0 0 0 0 0 0 0 0 0 0 0 0 0 0 0 0 0 0 0 0 0 0 0 0 0 0 0 0 0 0
0 0 0 0 0 0 0 0 0 0 0 0 0 0 0 0 0 0 0 0 0 0 0 0 0 0 0 0 0 0 0 0 0 0 0 0 0 0
0 0 0 0 0 0 0 0 0 0 0 0 0 0 0 0 0 0 0 0 0 0 0 0 0 0 0 0 0 0 0 0 0 0 0 0 0 0
0 0 0 0 0 0 0 0 0 0 0 0 0 0 0 0 0 0 0 0 0 0 0 0 0 0 0 0 0 0 0 0 0 0 0 0 0 0
0 0 0 0 0 0 0 0 0 0 0 0 0 0 0 0 0 0 0 0 0 0 0 0 0 0 0 0 0 0 0 0 0 0 0 0 0 0
0 0 0 0 0 0 0 0 0 0 0 0 0 0 0 0 0 0 0 0 0 0 0 0 0 0 0 0 0 0 0 0 0 0 0 0 0 0
0 0 0 0 0 0 0 0 0 0 0 0 0 0 0 0 0 0 0 0 0 0 0 0 0 0 0 0 0 0 0 0 0 0 0 0 0 0
0 0 0 0 0 0 0 0 0 0 0 0 0 0 0 0 0 0 0 0 0 0 0 0 0 0 0 0 0 0 0 0 0 0 0 0 0 0
0 0 0 0 0 0 0 0 0 0 0 0 0 0 0 0 0 0 0 0 0 0 0 0 0 0 0 0 0 0 0 0 0 0 0 0 0 0
0 0 0 0 0 0 0 0 0 0 0 0 0 0 0 0 0 0 0 0 0 0 0 0 0 0 0 0 0 0 0 0 0 0 0 0 0 0
0 0 0 0 0 0 0 0 0 0 0 0 0 0 0 0 0 0 0 0 0 0 0 0 0 0 0 0 0 0 0 0 0 0 0 0 0 0
Wind_Speed
2 2 2 2 2 2 2 3 3 3 4 3 2 1 1 1 3 2 3 5 6 6 6 6 6 6 7 8 8 9 9 10 11 12 14 15 15 15
2 2 2 2 2 2 2 2 3 4 4 2 2 1 1 1 2 2 2 5 5 5 5 5 5 5 6 7 8 9 9 10 11 12 13 14 14 14
1 1 2 2 1 2 2 2 2 2 3 2 1 1 0 1 2 1 1 2 1 3 4 5 5 6 6 7 8 9 9 9 10 11 12 13 14 14
1 1 2 1 2 1 1 2 2 2 3 3 1 1 1 2 2 2 1 1 1 3 4 5 5 5 6 7 8 9 9 9 10 11 11 12 13 13
1 1 1 1 1 2 1 1 1 1 1 2 2 1 1 1 1 1 1 1 1 2 4 4 4 5 6 7 8 8 8 9 10 10 11 11 12 13
1 1 1 1 1 2 1 1 1 0 1 1 1 1 1 1 0 1 1 1 1 2 3 3 4 6 7 7 7 8 8 9 9 10 11 11 12 13
0 1 1 1 2 2 1 0 1 1 1 1 1 1 1 0 1 1 1 1 1 1 1 1 2 2 3 5 6 7 8 8 9 10 11 11 12 12
0 1 1 1 2 3 3 2 0 1 1 1 1 2 2 1 1 1 0 1 1 1 1 2 1 2 2 2 5 7 7 8 9 10 11 11 11 12
1 1 1 2 2 2 2 3 2 1 1 0 1 2 1 1 0 1 1 1 2 2 1 3 2 2 2 3 6 7 8 9 9 10 11 11 11 11
0 0 0 1 1 2 2 2 2 2 1 1 1 1 1 0 0 0 0 0 1 1 0 2 2 3 3 2 5 6 8 9 9 11 11 12 11 11
1 1 1 1 1 2 2 2 2 2 3 3 2 2 3 2 2 1 0 0 1 2 1 0 1 3 3 2 3 6 8 9 10 11 12 12 12 11
1 1 1 2 2 2 1 1 1 2 2 3 3 4 3 3 3 1 1 1 1 1 1 1 1 3 3 2 2 3 4 7 10 11 12 12 11 6
1 1 1 2 3 2 2 1 1 1 2 2 2 2 2 2 2 2 1 1 1 2 2 1 2 2 2 4 3 2 2 3 4 6 9 11 11 8
0 1 1 3 3 3 2 2 3 3 2 1 1 2 2 2 2 2 2 2 1 2 2 2 2 2 2 3 4 3 3 3 3 4 4 8 9 10
1 1 2 3 3 2 3 3 3 2 1 1 1 1 1 1 1 2 2 2 2 2 2 1 1 2 2 2 3 4 4 4 3 3 4 4 4 5
1 2 3 4 4 3 3 2 2 1 1 1 1 1 1 1 1 1 1 2 2 3 3 3 2 1 2 3 3 4 4 3 4 4 5 4 4 4
1 1 1 1 2 1 1 2 2 2 2 1 1 1 1 2 1 1 1 2 2 2 3 3 2 1 2 2 2 3 3 3 3 4 4 5 4 4
1 1 1 1 1 1 1 1 1 1 1 1 1 1 1 1 1 2 2 2 2 2 2 3 3 3 2 1 1 2 3 3 4 4 4 4 5 4
1 1 0 0 1 1 1 0 1 1 1 1 1 1 1 1 1 1 2 2 2 2 3 3 3 2 2 3 3 2 2 3 4 4 3 3 4 5
1 1 1 1 1 1 0 0 1 1 1 1 1 1 1 1 1 1 1 2 2 2 3 3 3 2 1 2 3 3 4 4 3 4 4 3 3 5
0 0 0 0 0 0 0 0 0 0 0 0 1 1 1 1 1 1 1 2 2 2 3 3 3 5 2 1 2 3 4 4 4 3 3 3 3 3
0 0 0 0 0 0 0 0 0 0 1 1 1 1 1 1 1 1 1 1 2 2 2 3 3 3 2 1 2 3 4 5 5 6 4 2 1 2
0 1 1 1 0 0 0 0 0 0 0 0 1 1 1 1 1 1 1 1 1 2 2 3 3 2 2 1 2 3 4 5 4 4 3 5 5 4
Wind_Direction
240 244 251 258 249 243 230 208 210 240 257 246 232 233 239 239 258 263 249 272 276 278 285 290 295 302 309 313 316 318 320 322 322 319 315 314 313 312
240 248 267 269 262 248 238 229 219 220 243 239 232 239 247 284 286 264 242 278 274 282 288 295 303 311 315 318 323 324 323 323 324 322 320 321 319 317
259 246 267 278 268 266 258 235 226 212 238 263 250 272 240 269 293 279 256 244 249 295 307 310 317 319 319 324 325 325 324 325 327 328 324 323 323 322
251 260 274 290 287 280 261 242 228 213 210 237 259 268 249 248 257 262 281 278 265 314 314 314 316 319 327 331 334 331 330 330 330 328 324 324 325 325
231 247 270 280 286 292 290 270 222 210 190 207 249 268 276 265 265 279 295 313 324 332 326 315 321 327 331 330 331 333 335 333 331 328 325 326 327 326
253 258 271 253 257 276 279 245 182 152 181 210 246 274 286 300 245 284 324 356 330 335 326 318 328 331 327 326 331 337 336 333 331 330 330 329 328 327
2 312 293 318 305 291 278 206 170 165 184 218 267 308 293 286 285 293 303 338 332 322 330 319 321 315 318 320 332 338 335 335 334 332 332 332 332 332
58 360 340 345 343 334 331 334 263 178 181 189 276 261 264 261 295 283 321 349 328 358 2 312 322 311 308 303 330 339 342 343 338 335 335 335 335 336
108 22 347 356 3 2 1 7 7 8 318 284 231 260 261 258 228 9 344 315 286 302 338 310 320 302 300 323 334 338 344 344 342 339 338 338 338 338
91 155 67 345 350 13 35 29 19 16 4 11 187 259 277 221 183 185 214 334 314 314 327 291 310 308 317 323 335 339 343 341 341 340 340 339 339 337
48 43 47 18 347 358 42 49 24 14 21 34 33 26 14 8 7 62 57 14 324 317 337 297 311 321 321 323 334 345 346 343 341 341 341 340 340 335
47 24 20 9 352 348 37 82 41 2 21 33 37 31 24 27 12 4 225 233 273 300 321 342 314 338 329 320 325 334 336 337 340 343 344 342 341 335
58 2 359 0 351 5 27 56 68 36 47 44 37 33 29 28 13 4 352 194 217 260 271 299 296 311 294 301 315 318 326 325 330 334 341 344 344 343
70 347 1 8 10 25 32 68 71 56 69 59 40 23 16 6 359 5 15 18 303 258 273 262 260 275 291 300 303 317 327 321 325 329 330 335 339 340
84 36 7 12 14 40 52 77 71 75 89 74 39 358 348 347 4 15 18 21 12 348 335 317 262 269 266 275 292 304 315 321 325 329 329 329 328 327
63 51 32 33 28 31 47 58 59 78 79 69 20 346 358 21 22 16 9 5 14 359 356 352 326 285 280 277 277 294 304 307 322 324 319 316 320 322
51 56 43 34 38 37 47 51 59 53 43 34 30 20 25 27 10 0 1 10 14 345 344 352 357 340 280 272 289 298 304 302 301 314 319 319 321 322
50 70 44 18 18 12 24 40 49 47 35 41 39 29 23 17 3 2 12 24 18 353 338 332 338 343 346 343 279 283 298 298 305 312 309 310 317 323
59 58 19 338 342 344 356 48 44 35 42 49 40 27 15 9 4 6 14 17 6 346 331 327 335 344 349 336 328 322 301 305 310 314 309 300 302 309
46 14 337 343 347 335 340 58 63 46 38 35 25 359 353 8 10 6 5 2 349 341 340 342 341 339 329 301 303 310 314 298 302 309 309 305 294 301
354 324 313 319 320 334 341 60 70 39 24 28 14 351 357 18 12 3 360 352 349 345 344 334 321 326 315 327 326 320 318 322 315 301 299 307 319 335
314 300 294 276 276 148 149 105 76 66 51 41 6 348 354 11 6 349 344 345 344 342 337 327 329 345 3 19 343 321 325 333 338 340 334 306 296 319
306 282 269 266 245 174 167 158 132 74 46 40 357 345 348 359 354 347 344 350 355 352 351 351 355 6 10 9 349 332 332 334 337 348 353 2 6 343